Location: *
(58.7167°N, 26.1833°E)
Time: 08:13:08
(UTC+00:00)

ASTEX 1 - Pass Details

Date: 25 August 2019
Orbit: 719 x 745 km, 92.7° (Epoch: 18 September)

Event Time Altitude Azimuth Distance (km) Brightness Sun altitude
Rises 19:23:44 0° 4° (N) 3,185 7.4 -12.3°
Reaches altitude 10° 19:26:04 10° 1° (N) 2,254 6.6 -12.5°
Maximum altitude 19:30:58 59° 283° (WNW) 848 4.0 -12.9°
Drops below altitude 10° 19:35:47 10° 205° (SSW) 2,222 5.7 -13.3°
Sets 19:38:05 0° 202° (SSW) 3,136 6.4 -13.5°
